Mayfld Grav Cnty AP, Mayfield, KY

5:23 AM CDT on October 16, 2019 (GMT -0500)
Mayfld Grav Cnty AP, Mayfield

Weather History for KM25 - May, 2019

Change the Weather History Date:

Monday, May 20, 2019

  Actual Average (KPAH) Record (KPAH)
Temperature  
Mean Temperature 68 °F 68 °F  
Max Temperature 80 °F 79 °F 94 °F (1987)
Min Temperature 57 °F 58 °F 44 °F (2002)
Degree Days  
Heating Degree Days 0 2  
Month to date heating degree days 54  
Since 1 July heating degree days 4118  
Cooling Degree Days 4 5  
Month to date cooling degree days 65  
Year to date cooling degree days 107  
Growing Degree Days 18 (Base 50)    
Moisture  
Dew Point 56 °F    
Average Humidity 67    
Maximum Humidity 94    
Minimum Humidity 42    
Precipitation  
Precipitation 0.00 in 0.15 in 1.72 in (1960)
Month to date precipitation 3.35  
Year to date precipitation 19.63  
Snow  
Snow 0.00 in 0.00 in 0.00 in (2002)
Month to date snowfall 0.0  
Since 1 July snowfall 9.1  
Snow Depth -    
Sea Level Pressure  
Sea Level Pressure 30.03 in    
Wind  
Wind Speed 3 mph (NNE)    
Max Wind Speed 9 mph    
Max Gust Speed -    
Visibility 10 miles    
Events      
T = Trace of Precipitation, MM = Missing Value Source: NWS Daily Summary

Daily Weather History Graph

Daily Weather History Graph

Search for Another Location

Airport or City:

Astronomy

May. 20, 2019 Rise Set
Actual Time 5:43 AM CDT 7:58 PM CDT
Civil Twilight 5:13 AM CDT 8:28 PM CDT
Nautical Twilight 4:38 AM CDT 9:04 PM CDT
Astronomical Twilight 3:58 AM CDT 9:43 PM CDT
Moon 9:58 PM CDT (5/20) 7:11 AM CDT (5/20)
Length of Visible Light 15h 14m
Length of Day
14h 15m
Waning Gibbous, 96% of the Moon is Illuminated
May 20
Waning Gibbous
May 26
Last Quarter
Jun 3
New
Jun 10
First Quarter
Jun 17
Full

Hourly Weather History & Observations

Time (CDT) Temp. Heat Index Dew Point Humidity Pressure Visibility Wind Dir Wind Speed Gust Speed Precip Events Conditions
12:15 AM 68.0 °F - 59.0 °F 73% 29.96 in 10.0 mi West 3.5 mph - N/A   Clear
12:35 AM 68.0 °F - 59.0 °F 73% 29.97 in 10.0 mi West 3.5 mph - N/A   Clear
12:55 AM 66.2 °F - 59.0 °F 78% 29.96 in 10.0 mi Calm Calm - N/A   Clear
1:15 AM 62.6 °F - 59.0 °F 88% 29.97 in 10.0 mi WSW 3.5 mph - N/A   Clear
1:35 AM 62.6 °F - 59.0 °F 88% 29.98 in 10.0 mi West 4.6 mph - N/A   Clear
1:55 AM 60.8 °F - 59.0 °F 94% 29.98 in 10.0 mi Calm Calm - N/A   Clear
2:15 AM 60.8 °F - 59.0 °F 94% 29.98 in 10.0 mi Calm Calm - N/A   Clear
2:35 AM 60.8 °F - 59.0 °F 94% 29.99 in 10.0 mi Calm Calm - N/A   Clear
2:55 AM 60.8 °F - 59.0 °F 94% 29.99 in 10.0 mi WNW 4.6 mph - N/A   Clear
3:15 AM 60.8 °F - 57.2 °F 88% 30.00 in 10.0 mi NW 4.6 mph - N/A   Clear
3:35 AM 60.8 °F - 57.2 °F 88% 30.01 in 10.0 mi NW 3.5 mph - N/A   Clear
3:55 AM 60.8 °F - 57.2 °F 88% 30.01 in 10.0 mi NW 3.5 mph - N/A   Clear
4:15 AM 60.8 °F - 57.2 °F 88% 30.01 in 10.0 mi Calm Calm - N/A   Clear
4:35 AM 59.0 °F - 55.4 °F 88% 30.02 in 10.0 mi Calm Calm - N/A   Clear
4:55 AM 59.0 °F - 55.4 °F 88% 30.03 in 10.0 mi Calm Calm - N/A   Clear
5:15 AM 57.2 °F - 55.4 °F 94% 30.03 in 10.0 mi NNW 3.5 mph - N/A   Clear
5:35 AM 57.2 °F - 55.4 °F 94% 30.04 in 10.0 mi North 4.6 mph - N/A   Clear
5:55 AM 59.0 °F - 55.4 °F 88% 30.05 in 10.0 mi North 3.5 mph - N/A   Clear
6:15 AM 59.0 °F - 55.4 °F 88% 30.06 in 10.0 mi NNE 3.5 mph - N/A   Clear
6:35 AM 59.0 °F - 55.4 °F 88% 30.07 in 10.0 mi Calm Calm - N/A   Clear
6:55 AM 60.8 °F - 55.4 °F 82% 30.07 in 10.0 mi NE 3.5 mph - N/A   Clear
7:15 AM 62.6 °F - 57.2 °F 82% 30.08 in 10.0 mi NE 3.5 mph - N/A   Clear
7:35 AM 62.6 °F - 57.2 °F 82% 30.08 in 10.0 mi NE 5.8 mph - N/A   Clear
7:55 AM 64.4 °F - 55.4 °F 73% 30.09 in 10.0 mi ENE 5.8 mph - N/A   Clear
8:15 AM 64.4 °F - 53.6 °F 68% 30.09 in 10.0 mi East 3.5 mph - N/A   Clear
8:35 AM 66.2 °F - 53.6 °F 64% 30.09 in 10.0 mi NE 3.5 mph - N/A   Clear
8:55 AM 66.2 °F - 53.6 °F 64% 30.10 in 10.0 mi NNE 6.9 mph - N/A   Clear
9:15 AM 68.0 °F - 51.8 °F 56% 30.10 in 10.0 mi ENE 5.8 mph - N/A   Clear
9:35 AM 68.0 °F - 51.8 °F 56% 30.10 in 10.0 mi NNE 3.5 mph - N/A   Clear
9:55 AM 69.8 °F - 53.6 °F 56% 30.10 in 10.0 mi North 3.5 mph - N/A   Clear
10:15 AM 69.8 °F - 53.6 °F 56% 30.10 in 10.0 mi ENE 3.5 mph - N/A   Clear
10:35 AM 69.8 °F - 53.6 °F 56% 30.09 in 10.0 mi NNE 3.5 mph - N/A   Clear
10:55 AM 69.8 °F - 53.6 °F 56% 30.09 in 10.0 mi Calm Calm - N/A   Clear
11:15 AM 69.8 °F - 53.6 °F 56% 30.09 in 10.0 mi Calm Calm - N/A   Clear
11:35 AM 71.6 °F - 53.6 °F 53% 30.09 in 10.0 mi Calm Calm - N/A   Clear
11:55 AM 71.6 °F - 55.4 °F 57% 30.09 in 10.0 mi Calm Calm - N/A   Clear
12:15 PM 71.6 °F - 53.6 °F 53% 30.08 in 10.0 mi Calm Calm - N/A   Clear
12:35 PM 73.4 °F - 55.4 °F 53% 30.07 in 10.0 mi Calm Calm - N/A   Clear
12:55 PM 73.4 °F - 55.4 °F 53% 30.07 in 10.0 mi Calm Calm - N/A   Clear
1:15 PM 75.2 °F - 59.0 °F 57% 30.07 in 10.0 mi SE 3.5 mph - N/A   Clear
1:35 PM 77.0 °F - 55.4 °F 47% 30.06 in 10.0 mi Calm Calm - N/A   Clear
1:55 PM 77.0 °F - 59.0 °F 54% 30.06 in 10.0 mi Calm Calm - N/A   Clear
2:15 PM 77.0 °F - 59.0 °F 54% 30.06 in 10.0 mi SSW 3.5 mph - N/A   Clear
2:35 PM 77.0 °F - 55.4 °F 47% 30.05 in 10.0 mi NE 3.5 mph - N/A   Clear
2:55 PM 77.0 °F - 55.4 °F 47% 30.04 in 10.0 mi West 3.5 mph - N/A   Clear
3:15 PM 78.8 °F - 55.4 °F 44% 30.03 in 10.0 mi Calm Calm - N/A   Clear
3:35 PM 78.8 °F - 55.4 °F 44% 30.03 in 10.0 mi Calm Calm - N/A   Clear
3:55 PM 78.8 °F - 53.6 °F 42% 30.03 in 10.0 mi Calm Calm - N/A   Clear
4:15 PM 78.8 °F - 55.4 °F 44% 30.03 in 10.0 mi Calm Calm - N/A   Clear
4:35 PM 80.6 °F 80.8 °F 57.2 °F 45% 30.03 in 10.0 mi Calm Calm - N/A   Clear
4:55 PM 78.8 °F - 55.4 °F 44% 30.02 in 10.0 mi Calm Calm - N/A   Clear
5:15 PM 78.8 °F - 53.6 °F 42% 30.02 in 10.0 mi Calm Calm - N/A   Clear
5:35 PM 80.6 °F 80.5 °F 55.4 °F 42% 30.01 in 10.0 mi NE 4.6 mph - N/A   Clear
5:55 PM 78.8 °F - 53.6 °F 42% 30.00 in 10.0 mi NNE 3.5 mph - N/A   Clear
6:15 PM 78.8 °F - 55.4 °F 44% 29.98 in 10.0 mi North 3.5 mph - N/A   Clear
6:35 PM 78.8 °F - 55.4 °F 44% 29.98 in 10.0 mi NE 3.5 mph - N/A   Clear
6:55 PM 77.0 °F - 57.2 °F 50% 29.97 in 10.0 mi ENE 4.6 mph - N/A   Clear
7:15 PM 77.0 °F - 59.0 °F 54% 29.97 in 10.0 mi ENE 5.8 mph - N/A   Clear
7:35 PM 73.4 °F - 59.0 °F 61% 29.97 in 10.0 mi ENE 5.8 mph - N/A   Clear
7:55 PM 71.6 °F - 59.0 °F 64% 29.96 in 10.0 mi ENE 4.6 mph - N/A   Clear
8:15 PM 69.8 °F - 59.0 °F 68% 29.97 in 10.0 mi ENE 3.5 mph - N/A   Clear
8:35 PM 69.8 °F - 59.0 °F 68% 29.97 in 10.0 mi NE 3.5 mph - N/A   Clear
8:55 PM 68.0 °F - 59.0 °F 73% 29.98 in 10.0 mi NE 3.5 mph - N/A   Clear
9:15 PM 68.0 °F - 59.0 °F 73% 29.98 in 10.0 mi NE 4.6 mph - N/A   Clear
9:35 PM 68.0 °F - 59.0 °F 73% 29.99 in 10.0 mi NE 5.8 mph - N/A   Clear
9:55 PM 66.2 °F - 59.0 °F 78% 29.99 in 10.0 mi NE 5.8 mph - N/A   Clear
10:15 PM 66.2 °F - 59.0 °F 78% 29.98 in 10.0 mi ENE 6.9 mph - N/A   Clear
10:35 PM 64.4 °F - 59.0 °F 83% 29.97 in 10.0 mi ENE 9.2 mph - N/A   Clear
10:55 PM 64.4 °F - 59.0 °F 83% 29.96 in 10.0 mi ENE 8.1 mph - N/A   Clear
11:15 PM 66.2 °F - 57.2 °F 73% 29.97 in 10.0 mi ENE 8.1 mph - N/A   Clear
11:35 PM 66.2 °F - 57.2 °F 73% 29.96 in 10.0 mi ENE 8.1 mph - N/A   Clear
11:55 PM 64.4 °F - 55.4 °F 73% 29.95 in 10.0 mi ENE 8.1 mph - N/A   Clear